Location: Banff
(51.1667°N, 115.5667°W)
Time: 21:13:00
(UTC+00:00)

deb Explorer IX - Pass Details

Date: 27 November 2020
Orbit: 536 x 1104 km, 38.8° (Epoch: 23 January)

Event Time Altitude Azimuth Distance (km) Brightness Sun altitude
Rises 02:10:11 0° 232° (SW) 3,308 ? -22.6°
Reaches altitude 10° 02:13:34 10° 214° (SSW) 2,255 ? -23.1°
Maximum altitude 02:16:57 18° 173° (S) 1,683 ? -23.6°
Enters shadow 02:17:28 17° 165° (SSE) 1,680 ? -23.7°
